Tracking 35331 objects as of 15-Sep-2026
HD Live streaming from Space Station
objects crossing your sky now

COSMOS 1188 DEB

Track COSMOS 1188 DEB now!


NORAD ID: 27895
Int'l Code: 1980-050J
Launch date: June 14, 1980
Source: Commonwealth of Independent States (former USSR) (CIS)
Launch site: PLESETSK MISSILE AND SPACE COMPLEX (PKMTR)

Note: This is SATELLITE DEBRIS
Your satellite tracking list
Your tracking list is empty




NASA's NSSDC Master Catalog

Two Line Element Set (TLE):
1 27895U 80050J   11179.97712528 -.00000336  00000-0  10000-3 0  9991
2 27895  70.9508  45.2971 6168865 351.5663   1.7849  1.94887562109682
Source of the keplerian elements: AFSPC